This demonstration page uses our WeatherBlox Daily Observations layout. Learn more.

Left ArrowRight Arrow

38.20091, -84.87328

Hourly Observations for April 18, 2022

Temp ( °F °C ) Dew Point ( °F °C ) Humidity (%) Winds ( mph kmh ) Pressure ( in mb ) Visibility ( mi km ) Precip ( " mm )
12:53 am 00:53 Partly Cloudy 49 9.4 27 -2.8 43 43 ENE 14 22 30.00 1016 10 16 0.00 0.00
1:53 am 01:53 Cloudy 49 9.4 28 -2.2 44 44 ENE 12 19 29.97 1015 10 16 0.00 0.00
2:53 am 02:53 Cloudy 49 9.4 27 -2.8 43 43 NE 9 15 29.94 1014 10 16 0.00 0.00
3:32 am 03:32 Cloudy 48 8.9 28 -2.2 46 46 NE 8 13 29.93 1014 10 16 0.00 0.00
3:53 am 03:53 Cloudy with Light Rain 48 8.9 28 -2.2 46 46 NE 3 6 29.93 1013 9 14 0.00 0.00
4:53 am 04:53 Cloudy with Rain 42 5.6 37 2.8 82 82 NNE 5 7 29.93 1014 4 6 0.22 5.59
5:18 am 05:18 Cloudy with Rain 42 5.6 38 3.3 85 85 NNE 8 13 29.94 1014 5 8 0.06 1.52
5:39 am 05:39 Cloudy with Heavy Rain 41 5 38 3.3 89 89 N 7 11 29.96 1014 3 4 0.15 3.81
5:53 am 05:53 Cloudy with Rain 41 5 38 3.3 89 89 NNE 7 11 29.93 1014 3 5 0.20 5.08
6:23 am 06:23 Cloudy with Rain 41 5 37 2.8 86 86 N 8 13 29.96 1014 3 5 0.11 2.79
6:53 am 06:53 Cloudy with Rain 40 4.4 37 2.8 89 89 N 7 11 29.93 1014 3 5 0.18 4.57
7:15 am 07:15 Cloudy with Light Rain 40 4.4 37 2.8 89 89 N 6 9 29.96 1014 6 10 0.01 0.25
7:53 am 07:53 Cloudy with Light Rain 40 4.4 37 2.8 89 89 NNW 8 13 29.95 1014 7 11 0.03 0.76
8:53 am 08:53 Cloudy with Light Rain 40 4.4 37 2.8 89 89 NW 8 13 29.98 1015 5 8 0.02 0.51
9:53 am 09:53 Cloudy 41 5 38 3.3 89 89 WNW 7 11 30.00 1016 10 16 0.01 0.25
10:38 am 10:38 Cloudy 42 5.6 37 2.8 82 82 NW 8 13 30.02 1017 10 16 0.00 0.00
10:53 am 10:53 Cloudy 42 5.6 38 3.3 85 85 WNW 6 9 30.02 1017 10 16 0.00 0.00
11:53 am 11:53 Cloudy 44 6.7 38 3.3 79 79 WNW 9 15 30.03 1017 10 16 0.00 0.00
12:06 pm 12:06 Cloudy 44 6.7 37 2.8 76 76 W 10 17 30.05 1018 10 16 0.00 0.00
12:25 pm 12:25 Cloudy 44 6.7 37 2.8 76 76 WNW 12 19 30.05 1018 10 16 0.00 0.00
12:53 pm 12:53 Cloudy 45 7.2 37 2.8 74 74 W 12 19 30.04 1017 10 16 0.00 0.00
1:53 pm 13:53 Cloudy 45 7.2 36 2.2 71 71 WNW 10 17 30.05 1018 10 16 0.00 0.00
2:53 pm 14:53 Cloudy 46 7.8 35 1.7 66 66 W 9 15 30.07 1018 10 16 0.00 0.00
3:53 pm 15:53 Cloudy 45 7.2 35 1.7 68 68 W 15 24 30.08 1019 10 16 0.00 0.00
4:06 pm 16:06 Cloudy 45 7.2 34 1.1 66 66 NW 16 26 30.10 1019 10 16 0.00 0.00
4:16 pm 16:16 Cloudy 45 7.2 34 1.1 66 66 WNW 9 15 30.09 1019 10 16 0.00 0.00
4:50 pm 16:50 Cloudy 46 8 34 1 62 62 VRB 7 11 30.09 1019 10 16 0.00 0.00
4:53 pm 16:53 Cloudy 46 7.8 34 1.1 63 63 WNW 10 17 30.07 1018 10 16 0.00 0.00
5:06 pm 17:06 Cloudy 46 7.8 34 1.1 63 63 W 10 17 30.09 1019 10 16 0.00 0.00
5:14 pm 17:14 Cloudy 46 7.8 34 1.1 63 63 VRB 6 9 30.09 1019 10 16 0.00 0.00
5:53 pm 17:53 Cloudy 47 8.3 34 1.1 61 61 WNW 13 20 30.08 1019 10 16 0.00 0.00
6:53 pm 18:53 Cloudy 46 7.8 32 0 58 58 W 9 15 30.10 1019 10 16 0.00 0.00
7:53 pm 19:53 Cloudy 45 7.2 32 0 61 61 W 9 15 30.11 1020 10 16 0.00 0.00
8:53 pm 20:53 Mostly Cloudy 44 6.7 32 0 63 63 W 5 7 30.10 1019 10 16 0.00 0.00
9:53 pm 21:53 Clear 40 4.4 32 0 73 73 Calm 30.12 1020 10 16 0.00 0.00
10:53 pm 22:53 Cloudy 41 5 34 1.1 76 76 WNW 6 9 30.13 1020 10 16 0.00 0.00
11:53 pm 23:53 Cloudy 41 5 32 0 70 70 NW 9 15 30.14 1021 10 16 0.00 0.00

Powered by AerisWeather